Weather Roundup
Issued by NWS

Home | Current Version | Previous Version | Text Only | Print | Product List | Glossary On
Versions: 1 2 3 4 5 6 7 8 9 10 11 12 13 14 15 16 17 18 19 20 21 22 23 24 25 26 27 28 29 30 31 32 33 34 35 36 37 38 39 40 41 42 43 44 45 46 47 48 49 50
000
NZUS93 KARX 181910
HRRWXR

CURRENT HOURLY OBSERVATIONS ACROSS
MUCH OF THE UPPER MISSISSIPPI VALLEY
NATIONAL WEATHER SERVICE LA CROSSE WI
200 PM CDT SAT APR 18 2015


...SOUTHEAST MINNESOTA...


CITY           SKY/WX    TMP DP  RH WIND       PRES   REMARKS
ROCHESTER      MOSUNNY   72  42  34 E17G24    30.00F
ROCHESTER/MAYO FAIR      71  38  30 E18       30.00F
WINONA         MOSUNNY   73  37  27 SE14G20   30.01F
AUSTIN         PTSUNNY   73  43  33 SE17G23   29.97F
ALBERT LEA     PTSUNNY   72  43  35 SE13      29.95F
DODGE CENTER   MOSUNNY   73  37  27 E18       29.99F
PRESTON        MOSUNNY   71  38  29 E15G21    30.00F
OWATONNA       MOSUNNY   75  36  23 SE12G21   29.97F
FARIBAULT      MOSUNNY   73  34  23 E13G20    29.98F
$$

...ELSEWHERE IN MINNESOTA...


CITY           SKY/WX    TMP DP  RH WIND       PRES   REMARKS
MINNEAPOLIS    PTSUNNY   69  33  26 E15       30.00F
INTNL FALLS    SUNNY     61  17  18 SE17G29   30.11F
DULUTH         MOSUNNY   49  30  48 E17G25    30.15F
RED WING       PTSUNNY   73  28  19 SE14      30.00F
REDWOOD FALLS  PTSUNNY   73  31  21 SE10G23   29.94F
MANKATO        MOSUNNY   73  36  25 CALM      29.95F
WORTHINGTON    CLOUDY    64  46  52 SE20      29.94S
FAIRMONT       CLOUDY    68  36  30 S17       29.95F
$$

...SOUTHWEST WISCONSIN...


CITY           SKY/WX    TMP DP  RH WIND       PRES   REMARKS
LA CROSSE      SUNNY     74  34  23 SE17      30.02F
PRAIRIE DU CHI MOSUNNY   73  37  26 E15G23    30.00F
BOSCOBEL       PTSUNNY   74  37  26 E12G21    30.03F
LONE ROCK        N/A     69  37  30 E15G24    30.06F
PLATTEVILLE    SUNNY     71  38  30 E20G25    30.03F
FORT MC COY    MOSUNNY   70  31  23 E20       30.06F
CAMP DOUGLAS   MOSUNNY   68  33  27 E15       30.08F
VIROQUA        FAIR      70  35  27 E13G20    30.05S
WIS DELLS      SUNNY     65  35  33 E15       30.09F
$$

...ELSEWHERE IN WISCONSIN...


CITY           SKY/WX    TMP DP  RH WIND       PRES   REMARKS
MILWAUKEE      PTSUNNY   47  36  65 N22G29    30.14F
MADISON        MOSUNNY   67  35  30 E17G23    30.09F
GREEN BAY      MOSUNNY   55  38  52 NE18      30.18F
EAU CLAIRE     MOSUNNY   68  32  26 E13       30.05F
BLACK RVR FLS  FAIR      71  29  21 E10G23    30.05F
MEDFORD        SUNNY     62  32  32 E7        30.12F
WAUSAU         MOSUNNY   61  27  27 SE17      30.13F
WIS RAPIDS     MOSUNNY   63  23  21 E17G24    30.14S
MARSHFIELD     MOSUNNY   62  31  31 E15       30.11F
RICE LAKE      SUNNY     67  30  25 SE6       30.08F
$$

...NORTHEAST IOWA...


CITY           SKY/WX    TMP DP  RH WIND       PRES   REMARKS
DECORAH        MOSUNNY   73  41  31 E15G22    29.98F
MASON CITY     CLOUDY    73  43  33 E10       29.95F
CHARLES CITY   CLOUDY    77  46  33 SE18G25   29.95F
OELWEIN        MOSUNNY   77  46  33 E22G29    29.96F
$$

...ELSEWHERE IN IOWA...


CITY           SKY/WX    TMP DP  RH WIND       PRES   REMARKS
DES MOINES     CLOUDY    75  56  51 SE25G36   29.87F
IOWA CITY      CLOUDY    77  56  48 SE16      29.95F
FORT DODGE     CLOUDY    61  54  77 NE10      29.91F
$$

...NORTHERN ILLINOIS...


CITY           SKY/WX    TMP DP  RH WIND       PRES   REMARKS
CHICAGO-OHARE  PTSUNNY   57  38  48 NE15      30.07F
CHICAGO-MIDWAY PTSUNNY   62  40  44 NE13      30.07F
MOLINE         CLOUDY    78  53  41 S10G18    29.95F
ROCKFORD       PTSUNNY   72  35  25 E15G23    30.05F
PEORIA         CLOUDY    79  53  40 S12G18    29.97F
$$

NOTE: "FAIR" INDICATES FEW OR NO CLOUDS BELOW 12,000 FEET WITH NO
SIGNIFICANT WEATHER AND/OR OBSTRUCTIONS TO VISIBILITY. WIND
SPEEDS ARE IN MILES-PER-HOUR.



USA.gov is the U.S. government's official web portal to all federal, state and local government web resources and services.